[[{"header":{"parameterUnit":"m.s-1","parameterCategory":2,"la1":30.2991,"la2":30.254,"lo1":-89.0895,"lo2":-89.0444,"dy":0.0017,"dx":0.0017,"nx":28,"ny":28,"refTime":"2025-06-09T21:00:00:Z","depth":"0","parameterNumber":2,"parameterNumberName":"U-component_of_CURRENTS"},"data":[0,0,0,0,0,0,0,0,0,0,0,0,0,0,0,0,0,0,0,0,0,0,0,0,0,0,0,0,0,0,0,0,0,0,0,0,0,0,0,0,0,0,0,0,0,0,0,0,0,0,0,0,0,0,0,0,0,0,-0.1087,-0.1086,0,-0.1018,-0.1017,-0.1016,-0.099,-0.099,-0.0991,-0.0992,-0.0845,-0.0841,-0.0836,0,0,0,0,0,0,0,0,0,0,0,0,0,-0.1169,-0.1168,-0.1087,-0.1086,-0.1086,-0.1018,-0.1017,-0.1015,-0.099,-0.099,-0.0991,-0.0992,-0.0847,-0.0841,-0.0836,0,0,0,0,0,0,0,0,0,0,0,0,0,-0.1117,-0.1167,-0.1087,-0.1068,-0.1066,-0.1018,-0.1017,-0.1015,-0.099,-0.0991,-0.0991,-0.0992,-0.0848,-0.0842,-0.0835,-0.0777,0,0,-0.0815,-0.0812,0,0,0,0,0,0,0,0,-0.112,-0.1113,-0.1071,-0.1069,-0.1067,-0.1017,-0.0992,-0.0933,-0.0989,-0.1014,-0.0992,-0.0993,-0.0897,-0.0887,-0.0867,-0.077,-0.0763,-0.0814,-0.081,-0.0807,-0.0806,0,0,0,0,0,0,0,-0.1123,-0.1116,-0.1055,-0.1071,-0.1068,-0.1054,-0.1047,-0.0981,-0.0947,-0.1012,-0.1011,-0.101,-0.0895,-0.0874,-0.0863,-0.0761,-0.0815,-0.0809,-0.0804,-0.0802,-0.0568,-0.0566,0,0,0,0,0,0,-0.114,-0.1119,-0.1058,-0.1054,-0.11,-0.1052,-0.1044,-0.1029,-0.0949,-0.094,-0.1009,-0.1009,-0.0885,-0.0871,-0.0858,-0.0764,-0.0807,-0.0801,-0.0797,-0.057,-0.0567,-0.0565,0,0,0,0,0,0,-0.1142,-0.1134,-0.106,-0.1089,-0.1079,-0.105,-0.1033,-0.1027,-0.1,-0.0949,-0.0937,-0.0988,-0.0885,-0.0867,-0.079,-0.0759,-0.0798,-0.0792,-0.0573,-0.0569,-0.0566,-0.0589,0,0,0,0,0,0,-0.1144,-0.1135,-0.1126,-0.109,-0.1078,-0.103,-0.1032,-0.1025,-0.1,-0.0999,-0.0927,-0.0915,-0.0884,-0.08,-0.0783,-0.0751,-0.0787,-0.0576,-0.0571,-0.0567,-0.0591,-0.0587,-0.0583,0,0,0,0,0,-0.1147,-0.1134,-0.1126,-0.1119,-0.1067,-0.103,-0.1022,-0.1002,-0.0998,-0.0981,-0.0931,-0.0917,-0.0762,-0.0793,-0.0774,-0.0739,-0.0578,-0.0572,-0.0568,-0.0593,-0.0588,-0.0583,0,0,0,0,0,0,-0.117,-0.113,-0.112,-0.1096,-0.1066,-0.1027,-0.1015,-0.0995,-0.0941,-0.0935,-0.0888,-0.0871,-0.0791,-0.0753,-0.0789,-0.0656,-0.0666,-0.0657,-0.0692,-0.0686,-0.0682,-0.0697,-0.0781,0,0,0,0,0,-0.1171,-0.1146,-0.111,-0.1091,-0.1078,-0.1042,-0.1024,-0.1004,-0.0958,-0.0936,-0.0886,-0.0822,-0.0753,-0.0715,-0.0652,-0.0576,-0.0466,-0.0538,-0.0535,-0.0532,-0.0528,-0.0395,-0.0379,-0.0549,-0.0549,-0.0549,0,0,-0.1178,-0.115,-0.1139,-0.1094,-0.107,-0.1036,-0.1031,-0.0999,-0.096,-0.0924,-0.0854,-0.0805,-0.0729,-0.0652,-0.0612,-0.0618,-0.0396,-0.0525,-0.0524,-0.0521,-0.0388,-0.0372,-0.0357,-0.0545,-0.0546,-0.0547,0,0,-0.1177,-0.1152,-0.1131,-0.1099,-0.1059,-0.1031,-0.1021,-0.0971,-0.094,-0.0869,-0.0831,-0.0767,-0.0664,-0.061,-0.0568,-0.0497,-0.0383,-0.0471,-0.0461,-0.0332,-0.0318,-0.0304,-0.002,0.0019,-0.0468,-0.0468,-0.0468,0,-0.119,-0.1144,-0.1121,-0.1088,-0.1056,-0.1028,-0.099,-0.0952,-0.0881,-0.0841,-0.0848,-0.0691,-0.0644,-0.0537,-0.0523,-0.049,-0.0347,-0.0494,-0.0329,-0.0314,-0.03,-0.0013,0.003,-0.0469,-0.0469,-0.0468,-0.0468,0,-0.1164,-0.1126,-0.1111,-0.1055,-0.1022,-0.0981,-0.0933,-0.0889,-0.0852,-0.0809,-0.0707,-0.0646,-0.0546,-0.0529,-0.0508,-0.0381,-0.0278,-0.0344,-0.035,-0.0284,0.0016,0.0061,-0.0469,-0.0469,-0.0469,-0.0469,0,0,-0.1175,-0.1107,-0.1098,-0.1055,-0.0991,-0.0954,-0.0896,-0.0819,-0.0745,-0.0709,-0.059,-0.0539,-0.0505,-0.0454,-0.0413,-0.0333,-0.0083,-0.0301,-0.0294,-0.0029,0.0342,0.0494,0.056,-0.013,-0.0126,-0.0122,0.0556,0,-0.1152,-0.109,-0.1057,-0.098,-0.0933,-0.0885,-0.0818,-0.0749,-0.0678,-0.0555,-0.0511,-0.0364,-0.0471,-0.0367,-0.0334,-0.0115,0.0015,-0.0252,0.0249,0.0268,0.0379,0.0606,0.0645,0.1254,0.0601,0.0609,0.0614,0,-0.1107,-0.1071,-0.1007,-0.0904,-0.0879,-0.083,-0.0698,-0.0623,-0.0482,-0.0402,-0.032,-0.0239,-0.006,-0.0176,0.0162,0.0007,0.0165,0.0288,0.0316,0.048,0.0497,0.1061,0.1361,0.1341,0.0685,0.0679,0.0674,0,-0.1086,-0.101,-0.0956,-0.0925,-0.0829,-0.0778,-0.0704,-0.0581,-0.0419,-0.0246,-0.0064,0.0034,0.0264,0.0359,0.0595,0.0426,0.1006,0.0822,0.1116,0.1137,0.1281,0.1303,0.1596,0.104,0.1038,0.1036,0.1034,0,-0.1032,-0.0974,-0.094,-0.0905,-0.0758,-0.0738,-0.0531,-0.0449,-0.0235,0.0016,0.0046,0.0305,0.0401,0.0713,0.0776,0.1185,0.1185,0.1216,0.1318,0.1291,0.1305,0.1374,0.126,0.1062,0.1056,0.1051,0.1047,0,-0.0957,-0.0961,-0.0858,-0.0788,-0.0729,-0.061,-0.0325,-0.0139,-0.0007,0.0346,0.0462,0.0704,0.1095,0.1247,0.158,0.1574,0.1858,0.1963,0.2013,0.2101,0.2228,0.2111,0.2349,0.2345,0.2417,0.2424,0.2431,0,-0.088,-0.0852,-0.0734,-0.0563,-0.0499,-0.0304,-0.0098,0.0015,0.0233,0.0599,0.0813,0.1248,0.1519,0.2111,0.2265,0.2575,0.2294,0.2751,0.2342,0.2345,0.229,0.1973,0.1923,0.262,0.2628,0.2634,0.2639,0,-0.065,-0.0644,-0.0497,-0.025,-0.0034,0.0167,0.041,0.0565,0.0733,0.0967,0.1297,0.1517,0.2089,0.242,0.284,0.2949,0.2638,0.2884,0.2849,0.2473,0.2189,0.2199,0.216,0.2693,0.2688,0.2684,0.2681,0.2679,-0.0325,-0.0167,0.0023,0.0253,0.0437,0.0591,0.0739,0.0928,0.1159,0.1402,0.1578,0.1851,0.2331,0.2893,0.3123,0.3437,0.3097,0.3273,0.3168,0.2875,0.2713,0.2868,0.3473,0.3472,0.3471,0.347,0.347,0,0.0254,0.0362,0.0568,0.0799,0.0921,0.0898,0.1094,0.117,0.1328,0.1543,0.1737,0.2144,0.2642,0.306,0.3568,0.3646,0.3429,0.3587,0.3115,0.3075,0.3275,0.3117,0.3714,0.3714,0.3714,0.3714,0.3714,0.3714,0.0662,0.0958,0.0932,0.1198,0.1264,0.1368,0.1397,0.1432,0.1527,0.1711,0.1869,0.2007,0.2423,0.3129,0.3573,0.3654,0.3418,0.3347,0.3258,0.3351,0.3307,0.3265,0.3091,0.3673,0.3673,0.2961,0.2956,0.2953]},{"header":{"parameterUnit":"m.s-1","parameterCategory":2,"la1":30.2991,"la2":30.254,"lo1":-89.0895,"lo2":-89.0444,"dy":0.0017,"dx":0.0017,"nx":28,"ny":28,"refTime":"2025-06-09T21:00:00:Z","depth":"0","parameterNumber":3,"parameterNumberName":"V-component_of_CURRENTS"},"data":[0,0,0,0,0,0,0,0,0,0,0,0,0,0,0,0,0,0,0,0,0,0,0,0,0,0,0,0,0,0,0,0,0,0,0,0,0,0,0,0,0,0,0,0,0,0,0,0,0,0,0,0,0,0,0,0,0,0,-0.1635,-0.1636,0,-0.1668,-0.1668,-0.1667,-0.1678,-0.1678,-0.1678,-0.1679,-0.1513,-0.1508,-0.1503,0,0,0,0,0,0,0,0,0,0,0,0,0,-0.1515,-0.1517,-0.1635,-0.1636,-0.1637,-0.1668,-0.1668,-0.1667,-0.1677,-0.1678,-0.1679,-0.1679,-0.1514,-0.1509,-0.1503,0,0,0,0,0,0,0,0,0,0,0,0,0,-0.1553,-0.1517,-0.1635,-0.1651,-0.1653,-0.1668,-0.1668,-0.1667,-0.1677,-0.1678,-0.1679,-0.1679,-0.1516,-0.1509,-0.1502,-0.1443,0,0,-0.148,-0.1477,0,0,0,0,0,0,0,0,-0.1551,-0.1556,-0.1647,-0.165,-0.1652,-0.1675,-0.1565,-0.1585,-0.1677,-0.1661,-0.1679,-0.168,-0.1552,-0.1542,-0.154,-0.1436,-0.1428,-0.1479,-0.1475,-0.1471,-0.1469,0,0,0,0,0,0,0,-0.1548,-0.1555,-0.1641,-0.1648,-0.1652,-0.1634,-0.164,-0.1569,-0.1593,-0.1662,-0.1665,-0.1679,-0.1551,-0.1547,-0.1536,-0.1426,-0.1479,-0.1473,-0.1468,-0.1465,-0.1187,-0.1184,0,0,0,0,0,0,-0.1561,-0.1553,-0.164,-0.1643,-0.161,-0.1636,-0.1643,-0.1662,-0.1599,-0.1593,-0.1678,-0.168,-0.1559,-0.1544,-0.153,-0.1437,-0.1472,-0.1465,-0.1461,-0.119,-0.1186,-0.1183,0,0,0,0,0,0,-0.1558,-0.1568,-0.1639,-0.1603,-0.1612,-0.1639,-0.1659,-0.1662,-0.1659,-0.1614,-0.1604,-0.1674,-0.1559,-0.154,-0.1466,-0.1431,-0.1461,-0.1455,-0.1194,-0.1189,-0.1185,-0.1262,0,0,0,0,0,0,-0.1554,-0.1567,-0.158,-0.1605,-0.1615,-0.1642,-0.1659,-0.1662,-0.167,-0.1671,-0.1606,-0.1592,-0.1558,-0.1477,-0.1458,-0.1421,-0.1449,-0.1198,-0.1192,-0.1186,-0.1263,-0.126,-0.1258,0,0,0,0,0,-0.155,-0.157,-0.158,-0.1591,-0.1634,-0.1643,-0.1644,-0.1661,-0.1669,-0.166,-0.1621,-0.1594,-0.1426,-0.147,-0.1448,-0.1408,-0.12,-0.1193,-0.1187,-0.1264,-0.1261,-0.1258,0,0,0,0,0,0,-0.1529,-0.1574,-0.1586,-0.162,-0.1628,-0.1647,-0.1653,-0.1657,-0.1623,-0.1616,-0.1573,-0.1554,-0.1473,-0.1416,-0.1465,-0.1302,-0.13,-0.1289,-0.1366,-0.1362,-0.1359,-0.1384,-0.1443,0,0,0,0,0,-0.1531,-0.1553,-0.1584,-0.1606,-0.1616,-0.1629,-0.1636,-0.1639,-0.1621,-0.161,-0.1569,-0.1498,-0.1425,-0.138,-0.131,-0.1227,-0.1147,-0.1174,-0.1172,-0.1171,-0.117,-0.1026,-0.1012,-0.1161,-0.1161,-0.1161,0,0,-0.1531,-0.1558,-0.1571,-0.1602,-0.1614,-0.1619,-0.1633,-0.1637,-0.1627,-0.1588,-0.1551,-0.1494,-0.1401,-0.1321,-0.1274,-0.1272,-0.1081,-0.1162,-0.1163,-0.1163,-0.1018,-0.1004,-0.0991,-0.1156,-0.1157,-0.1158,0,0,-0.1538,-0.1564,-0.1582,-0.1584,-0.1601,-0.1606,-0.1606,-0.1613,-0.1603,-0.1558,-0.1523,-0.1459,-0.1348,-0.1292,-0.1243,-0.1172,-0.108,-0.1121,-0.1127,-0.0988,-0.0976,-0.0964,-0.0839,-0.0815,-0.1114,-0.1114,-0.1114,0,-0.1533,-0.1562,-0.1583,-0.1592,-0.1588,-0.1601,-0.1595,-0.159,-0.1566,-0.1525,-0.1545,-0.1374,-0.1337,-0.1214,-0.1218,-0.1173,-0.1071,-0.1164,-0.099,-0.0977,-0.0964,-0.0838,-0.0811,-0.1117,-0.1117,-0.1116,-0.1116,0,-0.1551,-0.1562,-0.1569,-0.1584,-0.1577,-0.1571,-0.1569,-0.1542,-0.153,-0.1506,-0.1396,-0.135,-0.1226,-0.1218,-0.1217,-0.1084,-0.1035,-0.1018,-0.1017,-0.0955,-0.0824,-0.0795,-0.1121,-0.112,-0.1119,-0.1118,0,0,-0.1572,-0.1578,-0.1583,-0.153,-0.1562,-0.1517,-0.1521,-0.1475,-0.1368,-0.1394,-0.1248,-0.1244,-0.1193,-0.1134,-0.1095,-0.1035,-0.0903,-0.1003,-0.0994,-0.0913,-0.0577,-0.0531,-0.0495,-0.0844,-0.0839,-0.0835,-0.0523,0,-0.1575,-0.1549,-0.1576,-0.1506,-0.1468,-0.1463,-0.1409,-0.1357,-0.1303,-0.1156,-0.1153,-0.0987,-0.1158,-0.1029,-0.1028,-0.0878,-0.0828,-0.0989,-0.0619,-0.0608,-0.0604,-0.0461,-0.0399,-0.0113,-0.0495,-0.049,-0.0486,0,-0.1596,-0.1548,-0.1494,-0.1358,-0.1337,-0.128,-0.1114,-0.1058,-0.0928,-0.0864,-0.0801,-0.0747,-0.0669,-0.0781,-0.0636,-0.0714,-0.0673,-0.0626,-0.061,-0.0523,-0.0508,-0.0231,-0.0045,-0.0187,-0.0441,-0.0444,-0.0448,0,-0.1532,-0.1481,-0.1401,-0.1373,-0.1248,-0.1162,-0.107,-0.0945,-0.0779,-0.0616,-0.0445,-0.0421,-0.0248,-0.0273,-0.0285,-0.0394,-0.0086,-0.0188,-0.0132,-0.0127,0.002,0.003,0.0084,-0.0086,-0.0087,-0.0087,-0.0088,0,-0.1512,-0.1425,-0.1322,-0.1248,-0.0994,-0.0992,-0.07,-0.0611,-0.0406,-0.0145,-0.0231,-0.0005,-0.0104,0.0015,-0.0102,0.0003,0.0072,-0.0091,-0.0023,-0.0003,0.0001,-0.0042,-0.0178,-0.0076,-0.0078,-0.0081,-0.0083,0,-0.1399,-0.1416,-0.1204,-0.1026,-0.0942,-0.0707,-0.0398,-0.0164,-0.006,0.0289,0.0372,0.0448,0.0572,0.0456,0.0534,0.0357,0.0322,0.0398,0.0407,0.0466,0.0304,0.0162,0.0218,0.0129,0.0522,0.0526,0.0528,0,-0.1316,-0.122,-0.094,-0.073,-0.0609,-0.0307,-0.0071,0.0054,0.0281,0.0565,0.077,0.0951,0.1066,0.115,0.0941,0.0835,0.0557,0.0795,0.0539,0.0347,0.0241,0.002,-0.008,0.0722,0.0726,0.0729,0.0732,0,-0.0993,-0.0904,-0.0682,-0.0331,-0.0045,0.0253,0.0545,0.0722,0.0869,0.1064,0.1311,0.1414,0.149,0.143,0.1281,0.1138,0.0648,0.0858,0.0702,0.0439,0.0172,0.0104,0.0433,0.0762,0.0759,0.0757,0.0755,0.0754,-0.0611,-0.0377,-0.0121,0.0212,0.048,0.0735,0.0904,0.1119,0.1365,0.154,0.1657,0.1781,0.1774,0.1568,0.1353,0.1041,0.0872,0.0871,0.0737,0.0545,0.0376,0.0743,0.11,0.1099,0.1098,0.1097,0.1097,0,-0.0062,0.0095,0.0416,0.0736,0.0941,0.0989,0.1265,0.133,0.1475,0.1721,0.1837,0.2039,0.1878,0.1655,0.133,0.0991,0.0688,0.0793,0.0492,0.0408,0.0842,0.0764,0.1016,0.1016,0.1016,0.1016,0.1016,0.1017,0.0278,0.0616,0.0664,0.105,0.1188,0.1355,0.1419,0.15,0.1629,0.1879,0.2065,0.2231,0.2279,0.1532,0.0988,0.0809,0.0391,0.0338,0.0125,0.0413,0.0407,0.0402,0.0297,0.0447,0.0447,-0.0301,-0.0307,-0.0312]}],[{"header":{"parameterUnit":"m.s-1","parameterCategory":2,"la1":30.2991,"la2":30.254,"lo1":-89.0895,"lo2":-89.0444,"dy":0.0017,"dx":0.0017,"nx":28,"ny":28,"refTime":"2025-06-09T21:00:00:Z","depth":"2","parameterNumber":2,"parameterNumberName":"U-component_of_CURRENTS"},"data":[0,0,0,0,0,0,0,0,0,0,0,0,0,0,0,0,0,0,0,0,0,0,0,0,0,0,0,0,0,0,0,0,0,0,0,0,0,0,0,0,0,0,0,0,0,0,0,0,0,0,0,0,0,0,0,0,0,0,-0.0346,-0.0346,0,-0.0341,-0.0341,-0.034,-0.0354,-0.0354,-0.0355,-0.0355,-0.0441,-0.0443,-0.0444,0,0,0,0,0,0,0,0,0,0,0,0,0,-0.0359,-0.0359,-0.0346,-0.0346,-0.0346,-0.0341,-0.0341,-0.034,-0.0354,-0.0354,-0.0355,-0.0356,-0.044,-0.0442,-0.0445,0,0,0,0,0,0,0,0,0,0,0,0,0,-0.0353,-0.0359,-0.0346,-0.0352,-0.0353,-0.0341,-0.0341,-0.034,-0.0354,-0.0355,-0.0355,-0.0356,-0.0439,-0.0442,-0.0445,-0.0448,0,0,-0.0453,-0.0455,0,0,0,0,0,0,0,0,-0.0354,-0.0353,-0.0351,-0.0352,-0.0352,-0.0349,-0.0377,-0.0381,-0.0354,-0.0353,-0.0355,-0.0356,-0.0418,-0.0423,-0.0418,-0.0452,-0.0456,-0.0454,-0.0455,-0.0456,-0.0457,0,0,0,0,0,0,0,-0.0354,-0.0353,-0.0343,-0.0351,-0.0352,-0.0352,-0.0352,-0.0377,-0.0383,-0.0353,-0.0354,-0.0354,-0.0419,-0.0416,-0.0421,-0.0457,-0.0453,-0.0456,-0.0458,-0.0459,-0.0452,-0.045,0,0,0,0,0,0,-0.0355,-0.0353,-0.0344,-0.0343,-0.0355,-0.0352,-0.0352,-0.0349,-0.0381,-0.0386,-0.0353,-0.0355,-0.0411,-0.0418,-0.0424,-0.0435,-0.0456,-0.0459,-0.0461,-0.0454,-0.0451,-0.0449,0,0,0,0,0,0,-0.0355,-0.0354,-0.0344,-0.0349,-0.0348,-0.0351,-0.0348,-0.0349,-0.0348,-0.038,-0.0387,-0.0352,-0.0411,-0.042,-0.0423,-0.0438,-0.046,-0.0463,-0.0456,-0.0453,-0.045,-0.0454,0,0,0,0,0,0,-0.0356,-0.0354,-0.0352,-0.0349,-0.0347,-0.0338,-0.0347,-0.0348,-0.0347,-0.0348,-0.0382,-0.039,-0.0413,-0.0418,-0.0425,-0.0443,-0.0465,-0.0458,-0.0454,-0.0451,-0.0456,-0.0452,-0.0448,0,0,0,0,0,-0.0356,-0.0351,-0.0351,-0.035,-0.0344,-0.0337,-0.0337,-0.0341,-0.0346,-0.0344,-0.0348,-0.0389,-0.0401,-0.0419,-0.0428,-0.0447,-0.046,-0.0455,-0.0451,-0.0458,-0.0453,-0.0448,0,0,0,0,0,0,-0.0358,-0.0352,-0.0352,-0.0347,-0.0342,-0.034,-0.0337,-0.0339,-0.0339,-0.0341,-0.037,-0.0377,-0.0386,-0.0398,-0.0416,-0.0425,-0.0436,-0.0434,-0.0438,-0.0433,-0.0429,-0.0431,-0.0467,0,0,0,0,0,-0.0356,-0.035,-0.0345,-0.034,-0.0338,-0.0336,-0.0334,-0.0335,-0.0335,-0.0336,-0.0354,-0.0364,-0.0373,-0.0388,-0.0396,-0.0407,-0.0392,-0.0418,-0.0414,-0.041,-0.0412,-0.0402,-0.0398,-0.0436,-0.0436,-0.0436,0,0,-0.0355,-0.0351,-0.0347,-0.034,-0.0337,-0.0335,-0.0336,-0.0331,-0.0333,-0.0347,-0.0351,-0.0354,-0.0368,-0.0374,-0.038,-0.0392,-0.0378,-0.0405,-0.0403,-0.0406,-0.0397,-0.0394,-0.0391,-0.0433,-0.0433,-0.0434,0,0,-0.0351,-0.0346,-0.034,-0.0337,-0.0331,-0.033,-0.0329,-0.0323,-0.0324,-0.032,-0.0327,-0.0325,-0.0347,-0.0354,-0.0364,-0.0336,-0.0353,-0.0342,-0.034,-0.033,-0.0328,-0.0326,-0.0256,-0.0248,-0.0347,-0.0347,-0.0347,0,-0.0352,-0.0346,-0.0338,-0.0335,-0.0335,-0.033,-0.0329,-0.0326,-0.0322,-0.0321,-0.0321,-0.0322,-0.0338,-0.0347,-0.0333,-0.0335,-0.0309,-0.037,-0.0329,-0.0327,-0.0325,-0.0254,-0.0246,-0.0347,-0.0347,-0.0347,-0.0347,0,-0.0347,-0.0343,-0.034,-0.0336,-0.0333,-0.0329,-0.0327,-0.0323,-0.0322,-0.032,-0.0317,-0.0315,-0.032,-0.0321,-0.0326,-0.0321,-0.0296,-0.0325,-0.0354,-0.0323,-0.0248,-0.0239,-0.0346,-0.0347,-0.0347,-0.0347,0,0,-0.0344,-0.0338,-0.0336,-0.0341,-0.0334,-0.0335,-0.0331,-0.0329,-0.0333,-0.0321,-0.032,-0.032,-0.0316,-0.0321,-0.0325,-0.0315,-0.0264,-0.0316,-0.0315,-0.0264,-0.0195,-0.0146,-0.013,-0.0298,-0.0298,-0.0297,-0.0133,0,-0.0343,-0.034,-0.0337,-0.0341,-0.0342,-0.034,-0.0343,-0.034,-0.0335,-0.033,-0.032,-0.0317,-0.0319,-0.0318,-0.031,-0.0277,-0.0247,-0.0303,-0.0217,-0.0212,-0.019,-0.0122,-0.0144,0.0002,-0.0124,-0.0122,-0.0121,0,-0.0336,-0.0338,-0.0339,-0.0352,-0.0353,-0.0364,-0.0369,-0.0372,-0.0362,-0.0352,-0.0342,-0.0325,-0.0292,-0.0307,-0.0233,-0.0269,-0.023,-0.0201,-0.0195,-0.0148,-0.0148,-0.0056,0.0023,-0.0106,-0.0107,-0.0109,-0.011,0,-0.0335,-0.0341,-0.0344,-0.0346,-0.0357,-0.037,-0.0386,-0.0385,-0.0367,-0.0365,-0.0322,-0.0314,-0.0258,-0.0245,-0.0152,-0.0201,-0.005,-0.0116,-0.0023,-0.0016,-0.0017,-0.0012,-0.0067,-0.0067,-0.0068,-0.0068,-0.0069,0,-0.0334,-0.0338,-0.0353,-0.0357,-0.0381,-0.0391,-0.0404,-0.0415,-0.0389,-0.0349,-0.0336,-0.0272,-0.024,-0.0141,-0.0124,-0.0004,-0.0019,0.0005,0.0024,-0.0009,-0.0006,-0.0105,-0.0112,-0.0062,-0.0063,-0.0065,-0.0066,0,-0.0324,-0.0332,-0.0337,-0.0359,-0.038,-0.0398,-0.0407,-0.0398,-0.0374,-0.0311,-0.0289,-0.0194,-0.0075,-0.0002,0.0075,0.0085,0.0148,0.019,0.019,0.0204,0.0167,0.0159,0.0285,0.0288,0.0291,0.0293,0.0295,0,-0.0318,-0.0315,-0.0335,-0.0348,-0.0367,-0.0395,-0.0404,-0.0404,-0.0373,-0.0253,-0.0206,-0.0054,0.0046,0.0219,0.0267,0.0352,0.0289,0.0363,0.0239,0.0195,0.0201,0.0188,0.0177,0.0268,0.0269,0.027,0.0271,0,-0.0298,-0.0295,-0.0301,-0.0327,-0.0351,-0.035,-0.0364,-0.033,-0.0287,-0.0204,-0.0074,0.0017,0.0205,0.0311,0.0443,0.0438,0.0332,0.0389,0.0354,0.017,0.0188,0.019,0.0177,0.0281,0.028,0.028,0.0279,0.0279,-0.0277,-0.0274,-0.0279,-0.0303,-0.031,-0.029,-0.0274,-0.0241,-0.0169,-0.0003,0.0036,0.0211,0.0278,0.0488,0.0496,0.0487,0.0473,0.0409,0.0401,0.0393,0.035,0.0369,0.0493,0.0493,0.0493,0.0494,0.0494,0,-0.0256,-0.0253,-0.0259,-0.0263,-0.0224,-0.0259,-0.0221,-0.0161,-0.0056,0.0107,0.0243,0.0333,0.0451,0.0501,0.0534,0.0522,0.0439,0.0457,0.0362,0.0354,0.0347,0.0295,0.0428,0.0427,0.0427,0.0427,0,0,-0.0247,-0.0233,-0.023,-0.0171,-0.0167,-0.0109,-0.0075,0.0009,0.0127,0.0286,0.0415,0.057,0.0572,0.0571,0.0529,0.0511,0.0416,0.0461,0.0519,0.0407,0.0399,0.033,0.0245,0,0,0,0,0]},{"header":{"parameterUnit":"m.s-1","parameterCategory":2,"la1":30.2991,"la2":30.254,"lo1":-89.0895,"lo2":-89.0444,"dy":0.0017,"dx":0.0017,"nx":28,"ny":28,"refTime":"2025-06-09T21:00:00:Z","depth":"2","parameterNumber":3,"parameterNumberName":"V-component_of_CURRENTS"},"data":[0,0,0,0,0,0,0,0,0,0,0,0,0,0,0,0,0,0,0,0,0,0,0,0,0,0,0,0,0,0,0,0,0,0,0,0,0,0,0,0,0,0,0,0,0,0,0,0,0,0,0,0,0,0,0,0,0,0,-0.0273,-0.0273,0,-0.0265,-0.0265,-0.0265,-0.0266,-0.0266,-0.0266,-0.0266,-0.0228,-0.0227,-0.0226,0,0,0,0,0,0,0,0,0,0,0,0,0,-0.0296,-0.0295,-0.0273,-0.0273,-0.0272,-0.0265,-0.0265,-0.0265,-0.0266,-0.0266,-0.0266,-0.0266,-0.0229,-0.0227,-0.0226,0,0,0,0,0,0,0,0,0,0,0,0,0,-0.0287,-0.0295,-0.0273,-0.0272,-0.0272,-0.0265,-0.0265,-0.0265,-0.0266,-0.0266,-0.0266,-0.0267,-0.0229,-0.0227,-0.0226,-0.0213,0,0,-0.0221,-0.022,0,0,0,0,0,0,0,0,-0.0287,-0.0286,-0.0272,-0.0272,-0.0272,-0.0266,-0.0259,-0.0246,-0.0266,-0.0269,-0.0266,-0.0267,-0.0238,-0.0235,-0.0235,-0.0211,-0.021,-0.0221,-0.022,-0.0219,-0.0219,0,0,0,0,0,0,0,-0.0288,-0.0287,-0.027,-0.0272,-0.0272,-0.0274,-0.0273,-0.0257,-0.0252,-0.0269,-0.0268,-0.0267,-0.0237,-0.0236,-0.0234,-0.0209,-0.0221,-0.0219,-0.0218,-0.0218,-0.0191,-0.0191,0,0,0,0,0,0,-0.0287,-0.0287,-0.027,-0.027,-0.0279,-0.0274,-0.0272,-0.0268,-0.0253,-0.0251,-0.0267,-0.0267,-0.0239,-0.0236,-0.0232,-0.0221,-0.0219,-0.0217,-0.0217,-0.0191,-0.0191,-0.0191,0,0,0,0,0,0,-0.0288,-0.0286,-0.0271,-0.0278,-0.0276,-0.0273,-0.0268,-0.0268,-0.027,-0.0252,-0.025,-0.0269,-0.0239,-0.0235,-0.0227,-0.022,-0.0217,-0.0215,-0.019,-0.0191,-0.0191,-0.0196,0,0,0,0,0,0,-0.0288,-0.0286,-0.0285,-0.0278,-0.0276,-0.0269,-0.0268,-0.0268,-0.0268,-0.0269,-0.0253,-0.025,-0.0239,-0.023,-0.0226,-0.0217,-0.0214,-0.019,-0.019,-0.0191,-0.0195,-0.0196,-0.0197,0,0,0,0,0,-0.0289,-0.0286,-0.0285,-0.0283,-0.0274,-0.0269,-0.0268,-0.0266,-0.0268,-0.0269,-0.0264,-0.025,-0.023,-0.0229,-0.0224,-0.0215,-0.019,-0.019,-0.0191,-0.0195,-0.0196,-0.0197,0,0,0,0,0,0,-0.0293,-0.0285,-0.0284,-0.0278,-0.0275,-0.0269,-0.0269,-0.0268,-0.0266,-0.0267,-0.0253,-0.0249,-0.0239,-0.023,-0.023,-0.0211,-0.0208,-0.0207,-0.0212,-0.0213,-0.0214,-0.0226,-0.0213,0,0,0,0,0,-0.0293,-0.0291,-0.0283,-0.028,-0.0278,-0.0275,-0.0274,-0.0272,-0.0268,-0.0267,-0.0257,-0.0248,-0.0237,-0.0229,-0.0218,-0.0207,-0.0206,-0.0199,-0.02,-0.0201,-0.0208,-0.0219,-0.0222,-0.0193,-0.0193,-0.0193,0,0,-0.0293,-0.029,-0.0288,-0.0281,-0.0279,-0.0278,-0.0275,-0.0273,-0.0272,-0.0262,-0.0259,-0.0249,-0.0236,-0.0225,-0.0219,-0.0216,-0.0204,-0.0202,-0.0202,-0.0209,-0.022,-0.0223,-0.0226,-0.0194,-0.0194,-0.0194,0,0,-0.0295,-0.029,-0.029,-0.0288,-0.0285,-0.0282,-0.0282,-0.0277,-0.0275,-0.0269,-0.0264,-0.0256,-0.0236,-0.0229,-0.0221,-0.0222,-0.021,-0.0214,-0.0224,-0.0235,-0.0238,-0.024,-0.0221,-0.0221,-0.0214,-0.0214,-0.0214,0,-0.0295,-0.0294,-0.029,-0.0291,-0.029,-0.0284,-0.0286,-0.0281,-0.0275,-0.0278,-0.0269,-0.0257,-0.0238,-0.0234,-0.0232,-0.0222,-0.0222,-0.0218,-0.0236,-0.0239,-0.0241,-0.0221,-0.0222,-0.0214,-0.0214,-0.0214,-0.0214,0,-0.0298,-0.0298,-0.0298,-0.0297,-0.0297,-0.0296,-0.029,-0.029,-0.0286,-0.0284,-0.0281,-0.0263,-0.0265,-0.0246,-0.0234,-0.024,-0.023,-0.0237,-0.0233,-0.0244,-0.0222,-0.0223,-0.0214,-0.0214,-0.0214,-0.0214,0,0,-0.0291,-0.0298,-0.0298,-0.031,-0.03,-0.0308,-0.0301,-0.0302,-0.0312,-0.0298,-0.0308,-0.0282,-0.0288,-0.0281,-0.0267,-0.0262,-0.0258,-0.0255,-0.0256,-0.0235,-0.0265,-0.0254,-0.0253,-0.0274,-0.0275,-0.0275,-0.0235,0,-0.0292,-0.0307,-0.0302,-0.0317,-0.0326,-0.032,-0.032,-0.0323,-0.0318,-0.0325,-0.031,-0.0307,-0.0298,-0.0293,-0.0296,-0.0266,-0.0264,-0.0268,-0.0259,-0.0258,-0.0247,-0.0256,-0.0314,-0.0284,-0.0235,-0.0235,-0.0235,0,-0.0291,-0.0306,-0.0323,-0.0343,-0.0346,-0.0358,-0.0372,-0.0369,-0.0369,-0.0361,-0.0366,-0.0355,-0.0342,-0.0333,-0.0314,-0.0319,-0.0302,-0.0275,-0.0274,-0.0267,-0.025,-0.027,-0.0287,-0.0236,-0.0236,-0.0236,-0.0236,0,-0.0302,-0.0318,-0.034,-0.0345,-0.0363,-0.038,-0.0389,-0.0392,-0.0377,-0.0388,-0.0367,-0.0384,-0.0358,-0.0362,-0.0314,-0.0319,-0.0282,-0.0286,-0.026,-0.0257,-0.0308,-0.0309,-0.0289,-0.029,-0.029,-0.029,-0.029,0,-0.0303,-0.0323,-0.0359,-0.0375,-0.0413,-0.0413,-0.0431,-0.0443,-0.0419,-0.0392,-0.0398,-0.0366,-0.0364,-0.0338,-0.0325,-0.0289,-0.0301,-0.0264,-0.0256,-0.0308,-0.0309,-0.0275,-0.0274,-0.0288,-0.0289,-0.0289,-0.0289,0,-0.0323,-0.0328,-0.0373,-0.0412,-0.0422,-0.0462,-0.0448,-0.0443,-0.0422,-0.0381,-0.0371,-0.0339,-0.0305,-0.0294,-0.027,-0.0277,-0.0256,-0.0244,-0.0286,-0.0285,-0.0219,-0.0218,-0.0217,-0.0216,-0.0216,-0.0216,-0.0215,0,-0.0342,-0.0366,-0.042,-0.0437,-0.0462,-0.0489,-0.0483,-0.046,-0.0427,-0.0349,-0.0321,-0.0275,-0.0258,-0.0229,-0.0237,-0.0233,-0.0217,-0.0266,-0.0295,-0.0224,-0.0216,-0.0216,-0.0216,-0.035,-0.035,-0.0351,-0.0352,0,-0.041,-0.043,-0.0471,-0.0489,-0.0505,-0.0499,-0.0486,-0.0454,-0.039,-0.0342,-0.0275,-0.0259,-0.0229,-0.0252,-0.0249,-0.0261,-0.0279,-0.0277,-0.0211,-0.0357,-0.0346,-0.0339,-0.0335,-0.0358,-0.0357,-0.0357,-0.0356,-0.0356,-0.0489,-0.0521,-0.0551,-0.0565,-0.055,-0.0513,-0.0495,-0.0438,-0.0386,-0.0276,-0.0264,-0.0194,-0.0246,-0.023,-0.0268,-0.0286,-0.0287,-0.0311,-0.0311,-0.0309,-0.033,-0.0319,-0.0327,-0.0327,-0.0326,-0.0326,-0.0325,0,-0.0593,-0.0594,-0.0609,-0.0614,-0.0567,-0.0543,-0.0481,-0.0427,-0.0354,-0.0245,-0.0186,-0.0179,-0.0232,-0.0229,-0.0284,-0.0343,-0.037,-0.0341,-0.0379,-0.0375,-0.0372,-0.0396,-0.041,-0.041,-0.0409,-0.0409,0,0,-0.0656,-0.068,-0.0657,-0.0621,-0.0585,-0.0518,-0.047,-0.0386,-0.0294,-0.0176,-0.0082,-0.0083,-0.0154,-0.019,-0.0312,-0.0339,-0.0332,-0.035,-0.0294,-0.0329,-0.0323,-0.0386,-0.0424,0,0,0,0,0]}],[{"header":{"parameterUnit":"m.s-1","parameterCategory":2,"la1":30.2991,"la2":30.254,"lo1":-89.0895,"lo2":-89.0444,"dy":0.0017,"dx":0.0017,"nx":28,"ny":28,"refTime":"2025-06-09T21:00:00:Z","depth":"4","parameterNumber":2,"parameterNumberName":"U-component_of_CURRENTS"},"data":[0,0,0,0,0,0,0,0,0,0,0,0,0,0,0,0,0,0,0,0,0,0,0,0,0,0,0,0,0,0,0,0,0,0,0,0,0,0,0,0,0,0,0,0,0,0,0,0,0,0,0,0,0,0,0,0,0,0,-0.0316,-0.0316,0,-0.0306,-0.0306,-0.0305,-0.0305,-0.0305,-0.0305,-0.0305,-0.031,-0.031,-0.031,0,0,0,0,0,0,0,0,0,0,0,0,0,-0.0327,-0.0327,-0.0316,-0.0316,-0.0316,-0.0306,-0.0306,-0.0305,-0.0305,-0.0305,-0.0305,-0.0305,-0.031,-0.031,-0.031,0,0,0,0,0,0,0,0,0,0,0,0,0,-0.032,-0.0327,-0.0316,-0.0314,-0.0314,-0.0306,-0.0306,-0.0305,-0.0305,-0.0305,-0.0305,-0.0305,-0.031,-0.031,-0.031,-0.0306,0,0,-0.031,-0.031,0,0,0,0,0,0,0,0,-0.032,-0.0319,-0.0315,-0.0314,-0.0314,-0.0307,-0.0311,-0.0306,-0.0305,-0.0308,-0.0305,-0.0305,-0.0311,-0.0311,-0.0307,-0.0306,-0.0306,-0.031,-0.031,-0.031,-0.031,0,0,0,0,0,0,0,-0.0321,-0.032,-0.0311,-0.0315,-0.0314,-0.0312,-0.0311,-0.031,-0.0308,-0.0308,-0.0308,-0.0307,-0.0311,-0.0307,-0.0308,-0.0306,-0.031,-0.031,-0.031,-0.031,-0.031,-0.031,0,0,0,0,0,0,-0.0323,-0.032,-0.0312,-0.0311,-0.0318,-0.0312,-0.0311,-0.0309,-0.0308,-0.0308,-0.0307,-0.0307,-0.0307,-0.0308,-0.0308,-0.0312,-0.031,-0.031,-0.031,-0.031,-0.031,-0.031,0,0,0,0,0,0,-0.0323,-0.0322,-0.0312,-0.0316,-0.0314,-0.0311,-0.0309,-0.0308,-0.0308,-0.0307,-0.0307,-0.0308,-0.0308,-0.0308,-0.0308,-0.0312,-0.031,-0.031,-0.031,-0.031,-0.031,-0.0315,0,0,0,0,0,0,-0.0323,-0.0322,-0.0323,-0.0316,-0.0314,-0.0308,-0.0309,-0.0308,-0.0308,-0.0308,-0.0308,-0.0309,-0.0308,-0.0308,-0.0308,-0.0312,-0.031,-0.031,-0.031,-0.031,-0.0315,-0.0315,-0.0316,0,0,0,0,0,-0.0324,-0.0322,-0.0323,-0.0322,-0.0315,-0.0308,-0.0306,-0.0305,-0.0308,-0.0306,-0.0306,-0.0309,-0.0308,-0.0307,-0.0308,-0.0312,-0.031,-0.031,-0.031,-0.0315,-0.0315,-0.0316,0,0,0,0,0,0,-0.0328,-0.0322,-0.0322,-0.0319,-0.0315,-0.0308,-0.0306,-0.0306,-0.0304,-0.0306,-0.0307,-0.0307,-0.0309,-0.0309,-0.0308,-0.0312,-0.031,-0.031,-0.0314,-0.0314,-0.0315,-0.0302,-0.031,0,0,0,0,0,-0.0329,-0.0326,-0.032,-0.0318,-0.0315,-0.0312,-0.031,-0.0308,-0.0305,-0.0305,-0.0305,-0.0306,-0.0308,-0.031,-0.0309,-0.031,-0.0298,-0.0313,-0.0314,-0.0314,-0.0303,-0.0287,-0.0284,-0.031,-0.031,-0.031,0,0,-0.0331,-0.0327,-0.0325,-0.0319,-0.0315,-0.0311,-0.0311,-0.0306,-0.0306,-0.0306,-0.0305,-0.0306,-0.0308,-0.0309,-0.0311,-0.031,-0.0303,-0.0314,-0.0314,-0.0303,-0.0286,-0.0284,-0.0281,-0.031,-0.031,-0.031,0,0,-0.033,-0.0327,-0.0324,-0.032,-0.0314,-0.0311,-0.0311,-0.0305,-0.0304,-0.0303,-0.0305,-0.0305,-0.0309,-0.0308,-0.031,-0.0311,-0.0305,-0.0317,-0.0309,-0.0293,-0.0291,-0.0288,-0.028,-0.0276,-0.0318,-0.0318,-0.0318,0,-0.0333,-0.0327,-0.0322,-0.0318,-0.0314,-0.0313,-0.0308,-0.0308,-0.0303,-0.0299,-0.0304,-0.0301,-0.0306,-0.0305,-0.0307,-0.0311,-0.0302,-0.0309,-0.0293,-0.029,-0.0288,-0.0279,-0.0275,-0.0318,-0.0318,-0.0318,-0.0318,0,-0.0329,-0.0325,-0.0322,-0.0316,-0.0312,-0.0307,-0.0305,-0.0301,-0.0302,-0.03,-0.0297,-0.0299,-0.0292,-0.0303,-0.0306,-0.0294,-0.0294,-0.0295,-0.0291,-0.0285,-0.0277,-0.0273,-0.0318,-0.0318,-0.0318,-0.0318,0,0,-0.0333,-0.0321,-0.032,-0.0313,-0.031,-0.0302,-0.0303,-0.0295,-0.0288,-0.0291,-0.0281,-0.0289,-0.0282,-0.0283,-0.0288,-0.028,-0.0262,-0.0279,-0.0278,-0.0269,-0.0229,-0.0173,-0.0164,-0.026,-0.0259,-0.0258,-0.0234,0,-0.033,-0.0317,-0.0316,-0.0305,-0.0296,-0.0294,-0.0291,-0.0286,-0.0282,-0.0272,-0.0276,-0.027,-0.0278,-0.0274,-0.0266,-0.0265,-0.025,-0.0269,-0.0237,-0.0236,-0.0185,-0.0157,-0.0256,-0.0231,-0.023,-0.0229,-0.0229,0,-0.0326,-0.0316,-0.0302,-0.0287,-0.0284,-0.0279,-0.0262,-0.026,-0.0253,-0.025,-0.0243,-0.0242,-0.0236,-0.0241,-0.0223,-0.0234,-0.0223,-0.0223,-0.0222,-0.0161,-0.0171,-0.0235,-0.0221,-0.0222,-0.0222,-0.0223,-0.0223,0,-0.0319,-0.0306,-0.0291,-0.0287,-0.0273,-0.0265,-0.0259,-0.025,-0.0239,-0.0231,-0.0219,-0.0215,-0.0205,-0.0197,-0.0193,-0.0204,-0.017,-0.0187,-0.0126,-0.0124,-0.0181,-0.0184,-0.0156,-0.0156,-0.0157,-0.0157,-0.0157,0,-0.0313,-0.0302,-0.0284,-0.0274,-0.0249,-0.025,-0.0227,-0.0221,-0.0212,-0.0189,-0.02,-0.0175,-0.019,-0.0174,-0.0177,-0.0132,-0.0153,-0.0108,-0.0103,-0.0187,-0.019,-0.0179,-0.0182,-0.0156,-0.0156,-0.0156,-0.0156,0,-0.0302,-0.0298,-0.027,-0.0248,-0.0242,-0.022,-0.0201,-0.0186,-0.0183,-0.0153,-0.0149,-0.0139,-0.0109,-0.0118,-0.0105,-0.0096,-0.0076,-0.0053,-0.014,-0.0143,-0.0047,-0.0051,0.002,0.0022,0.0024,0.0026,0.0027,0,-0.0295,-0.0277,-0.0239,-0.022,-0.0208,-0.0183,-0.0168,-0.0166,-0.0149,-0.0121,-0.0101,-0.007,-0.0058,0.0003,-0.0015,-0.0003,0.0,0.0002,-0.0018,-0.0021,-0.0024,-0.0031,-0.0038,0.0031,0.0031,0.0032,0.0032,0,-0.0263,-0.0244,-0.0217,-0.0179,-0.0157,-0.013,-0.011,-0.0092,-0.0084,-0.0088,-0.0029,-0.0001,0.0042,0.0052,0.0068,0.0069,-0.0008,0.0024,0.0019,-0.0,-0.0008,-0.0014,-0.0023,0.0039,0.0038,0.0038,0.0037,0,-0.023,-0.02,-0.0164,-0.0129,-0.0104,-0.0075,-0.0069,-0.0037,-0.0019,0.0002,0.0025,0.0054,0.0057,0.0093,0.0101,0.0117,0.0118,0.0106,0.0097,0.0089,0.0101,0.0101,0.0204,0,0,0,0,0,-0.0198,-0.0162,-0.0121,-0.0078,-0.0055,-0.0043,-0.0028,-0.0029,-0.0024,0.0032,0.0032,0.0076,0.0122,0.0129,0.0161,0.0129,0.0107,0.0166,0.0085,0.0079,0.007,0.0078,0,0,0,0,0,0,-0.0173,-0.0132,-0.0108,-0.0046,-0.0014,0.0013,0.0024,0.0026,0.0056,0.0061,0.0086,0.0089,0.0126,0.0111,0.0166,0.0168,0.0123,0.0177,0.0178,0.0083,0.0076,0.0069,0.0075,0,0,0,0,0]},{"header":{"parameterUnit":"m.s-1","parameterCategory":2,"la1":30.2991,"la2":30.254,"lo1":-89.0895,"lo2":-89.0444,"dy":0.0017,"dx":0.0017,"nx":28,"ny":28,"refTime":"2025-06-09T21:00:00:Z","depth":"4","parameterNumber":3,"parameterNumberName":"V-component_of_CURRENTS"},"data":[0,0,0,0,0,0,0,0,0,0,0,0,0,0,0,0,0,0,0,0,0,0,0,0,0,0,0,0,0,0,0,0,0,0,0,0,0,0,0,0,0,0,0,0,0,0,0,0,0,0,0,0,0,0,0,0,0,0,-0.017,-0.017,0,-0.0178,-0.0178,-0.0178,-0.017,-0.017,-0.0169,-0.0169,-0.0158,-0.0158,-0.0158,0,0,0,0,0,0,0,0,0,0,0,0,0,-0.0156,-0.0156,-0.017,-0.017,-0.017,-0.0178,-0.0178,-0.0178,-0.017,-0.017,-0.0169,-0.0169,-0.0158,-0.0158,-0.0158,0,0,0,0,0,0,0,0,0,0,0,0,0,-0.0163,-0.0156,-0.017,-0.0167,-0.0167,-0.0178,-0.0178,-0.0178,-0.017,-0.017,-0.0169,-0.0169,-0.0158,-0.0158,-0.0158,-0.0167,0,0,-0.0158,-0.0158,0,0,0,0,0,0,0,0,-0.0162,-0.0163,-0.0167,-0.0167,-0.0167,-0.0172,-0.0169,-0.0174,-0.017,-0.0169,-0.0169,-0.0168,-0.0161,-0.0161,-0.0164,-0.0167,-0.0166,-0.0158,-0.0158,-0.0158,-0.0158,0,0,0,0,0,0,0,-0.0162,-0.0163,-0.0173,-0.0167,-0.0167,-0.0168,-0.0168,-0.017,-0.0167,-0.0169,-0.0168,-0.0169,-0.0161,-0.0164,-0.0163,-0.0166,-0.0158,-0.0158,-0.0158,-0.0158,-0.0177,-0.0177,0,0,0,0,0,0,-0.0161,-0.0163,-0.0173,-0.0173,-0.0163,-0.0168,-0.0169,-0.0171,-0.0168,-0.0167,-0.017,-0.0169,-0.0164,-0.0163,-0.0163,-0.0158,-0.0158,-0.0158,-0.0158,-0.0176,-0.0177,-0.0177,0,0,0,0,0,0,-0.0161,-0.0162,-0.0173,-0.0168,-0.0169,-0.0169,-0.0172,-0.0172,-0.0178,-0.0168,-0.0167,-0.0176,-0.0164,-0.0163,-0.0168,-0.0158,-0.0158,-0.0158,-0.0175,-0.0176,-0.0177,-0.0158,0,0,0,0,0,0,-0.016,-0.0162,-0.0167,-0.0168,-0.0169,-0.018,-0.0172,-0.0172,-0.0179,-0.0178,-0.0174,-0.0172,-0.0163,-0.0168,-0.0168,-0.0158,-0.0158,-0.0175,-0.0176,-0.0177,-0.0158,-0.0158,-0.0158,0,0,0,0,0,-0.016,-0.0166,-0.0167,-0.0168,-0.0175,-0.0181,-0.0182,-0.018,-0.0179,-0.0184,-0.0182,-0.0172,-0.0174,-0.0169,-0.0169,-0.0158,-0.0174,-0.0176,-0.0177,-0.0158,-0.0158,-0.0158,0,0,0,0,0,0,-0.0163,-0.0166,-0.0167,-0.0174,-0.0178,-0.0179,-0.0184,-0.0185,-0.0189,-0.0189,-0.0181,-0.0179,-0.0179,-0.018,-0.0174,-0.0169,-0.0172,-0.0173,-0.0158,-0.0158,-0.0158,-0.0133,-0.0158,0,0,0,0,0,-0.0167,-0.0172,-0.0175,-0.0182,-0.0184,-0.0187,-0.0191,-0.019,-0.0192,-0.0194,-0.0191,-0.0189,-0.0185,-0.0181,-0.0182,-0.0181,-0.0182,-0.0175,-0.0175,-0.0175,-0.0157,-0.0144,-0.0141,-0.0181,-0.0181,-0.0181,0,0,-0.017,-0.0173,-0.0176,-0.0183,-0.0187,-0.0179,-0.0188,-0.0195,-0.0184,-0.0192,-0.0184,-0.0192,-0.0187,-0.0182,-0.0182,-0.0179,-0.0174,-0.0176,-0.0176,-0.0157,-0.0145,-0.0141,-0.0137,-0.0182,-0.0182,-0.0181,0,0,-0.0165,-0.0182,-0.0176,-0.0179,-0.0185,-0.0186,-0.0189,-0.0193,-0.0192,-0.0194,-0.0191,-0.019,-0.0195,-0.0177,-0.0171,-0.0174,-0.0178,-0.0186,-0.0157,-0.0146,-0.0142,-0.0138,-0.0171,-0.017,-0.0181,-0.0181,-0.0181,0,-0.0167,-0.0159,-0.0177,-0.0168,-0.0166,-0.0185,-0.0172,-0.0175,-0.018,-0.0177,-0.019,-0.0186,-0.0183,-0.0157,-0.0156,-0.0169,-0.0183,-0.0154,-0.0143,-0.0139,-0.0135,-0.017,-0.0169,-0.018,-0.018,-0.018,-0.018,0,-0.0146,-0.0144,-0.0144,-0.0135,-0.0138,-0.0138,-0.014,-0.0145,-0.0154,-0.0154,-0.015,-0.0154,-0.0149,-0.015,-0.015,-0.0123,-0.0153,-0.0147,-0.0136,-0.013,-0.0168,-0.0167,-0.0179,-0.0179,-0.0179,-0.0179,0,0,-0.0136,-0.0128,-0.0128,-0.0133,-0.0121,-0.0137,-0.0111,-0.0104,-0.0118,-0.0109,-0.0116,-0.0088,-0.0105,-0.0098,-0.0104,-0.0085,-0.0085,-0.0103,-0.0103,-0.0125,-0.0097,-0.0121,-0.0123,-0.0078,-0.0077,-0.0076,-0.0147,0,-0.0111,-0.0101,-0.0088,-0.0087,-0.0091,-0.0091,-0.0083,-0.0084,-0.0096,-0.0117,-0.0096,-0.0116,-0.0082,-0.0107,-0.007,-0.0096,-0.0077,-0.0068,-0.0108,-0.011,-0.0122,-0.012,-0.0073,-0.0147,-0.0146,-0.0146,-0.0146,0,-0.0085,-0.0091,-0.0078,-0.0096,-0.0098,-0.0098,-0.0118,-0.0114,-0.012,-0.0132,-0.0113,-0.0127,-0.01,-0.0091,-0.0065,-0.0067,-0.0067,-0.0073,-0.0076,-0.0094,-0.0131,-0.0147,-0.0145,-0.0145,-0.0145,-0.0146,-0.0146,0,-0.01,-0.0087,-0.0087,-0.0089,-0.0102,-0.0104,-0.0114,-0.0121,-0.0139,-0.0154,-0.0182,-0.0145,-0.0169,-0.0126,-0.0122,-0.0103,-0.0121,-0.0102,-0.0115,-0.012,-0.0085,-0.0088,-0.0062,-0.0062,-0.0062,-0.0062,-0.0062,0,-0.0088,-0.0098,-0.0108,-0.0122,-0.0158,-0.0148,-0.0186,-0.0192,-0.0206,-0.0227,-0.0204,-0.0218,-0.0176,-0.018,-0.0148,-0.0144,-0.0136,-0.0106,-0.0125,-0.0084,-0.0086,-0.0087,-0.0089,-0.0065,-0.0064,-0.0064,-0.0063,0,-0.0121,-0.0104,-0.0137,-0.016,-0.017,-0.0213,-0.0242,-0.0266,-0.0274,-0.0301,-0.0307,-0.0296,-0.029,-0.0264,-0.0243,-0.0204,-0.019,-0.0186,-0.0187,-0.0207,-0.0194,-0.0194,-0.0204,-0.0205,-0.0206,-0.0207,-0.0208,0,-0.0143,-0.0157,-0.0198,-0.022,-0.0234,-0.028,-0.0299,-0.0307,-0.0316,-0.0334,-0.0341,-0.0359,-0.0339,-0.0337,-0.03,-0.027,-0.0239,-0.0251,-0.0156,-0.0183,-0.0201,-0.02,-0.0199,-0.0209,-0.0209,-0.021,-0.021,0,-0.0219,-0.0228,-0.026,-0.0288,-0.0315,-0.0348,-0.0366,-0.0378,-0.0367,-0.0384,-0.0365,-0.0353,-0.0364,-0.0332,-0.0335,-0.0292,-0.0252,-0.026,-0.0256,-0.0166,-0.0189,-0.0206,-0.0204,-0.0213,-0.0213,-0.0212,-0.0212,0,-0.0298,-0.0325,-0.0339,-0.0362,-0.0385,-0.0383,-0.04,-0.0384,-0.0393,-0.0378,-0.0376,-0.0366,-0.0364,-0.0347,-0.0336,-0.032,-0.028,-0.0244,-0.024,-0.0236,-0.0208,-0.0239,-0.0289,0,0,0,0,0,-0.0376,-0.0373,-0.04,-0.0405,-0.0414,-0.0415,-0.0418,-0.0414,-0.0402,-0.038,-0.0369,-0.0359,-0.0338,-0.034,-0.0322,-0.035,-0.0293,-0.033,-0.0252,-0.0231,-0.0228,-0.0188,0,0,0,0,0,0,-0.0422,-0.0446,-0.0413,-0.0419,-0.0416,-0.042,-0.0417,-0.0409,-0.0387,-0.0373,-0.0361,-0.0351,-0.0337,-0.0347,-0.0321,-0.0321,-0.0266,-0.0325,-0.0324,-0.0234,-0.023,-0.0227,-0.0185,0,0,0,0,0]}]]